[[{"header":{"parameterUnit":"m.s-1","parameterCategory":2,"la1":30.2992,"la2":30.254,"lo1":-89.0895,"lo2":-89.0443,"dy":0.0025,"dx":0.0025,"nx":19,"ny":19,"refTime":"2026-04-23T21:00:00:Z","depth":"0","parameterNumber":2,"parameterNumberName":"U-component_of_CURRENTS"},"data":[0,0,0,-0.1984,-0.1983,-0.1923,-0.1923,-0.1847,-0.1846,0,0,0,0,0,0,0,0,0,0,0,-0.199,-0.1989,-0.1984,-0.1983,-0.1923,-0.1923,-0.1847,-0.1846,0,0,0,0,0,0,0,0,0,0,0,-0.199,-0.1989,-0.1989,-0.1983,-0.1923,-0.1922,-0.1847,-0.189,0,0,0,0,0,0,0,0,0,0,-0.1947,-0.1954,-0.199,-0.1989,-0.1983,-0.1923,-0.1922,-0.1892,-0.1887,-0.1877,0,-0.1861,0,-0.1863,-0.1842,-0.1842,0,0,0,-0.1973,-0.1958,-0.1947,-0.1989,-0.1982,-0.1923,-0.1947,-0.1889,-0.1884,-0.1871,-0.186,-0.1858,-0.1861,-0.1842,-0.1841,-0.169,-0.1689,0,0,-0.1976,-0.1974,-0.1951,-0.1944,-0.1957,-0.1949,-0.1946,-0.1886,-0.1873,-0.186,-0.1856,-0.186,-0.1841,-0.1841,-0.1691,-0.169,0,0,0,-0.1993,-0.1976,-0.1967,-0.1947,-0.1942,-0.1948,-0.1943,-0.1875,-0.1873,-0.1855,-0.1859,-0.1841,-0.184,-0.1692,-0.169,-0.1679,0,0,0,-0.1994,-0.1987,-0.1968,-0.1966,-0.1943,-0.1908,-0.1934,-0.1877,-0.1871,-0.186,-0.1841,-0.1839,-0.1694,-0.1691,-0.1682,-0.1654,0,0,0,-0.1994,-0.1987,-0.1979,-0.1966,-0.1947,-0.1909,-0.1903,-0.1875,-0.1874,-0.1842,-0.1839,-0.1695,-0.1692,-0.1685,-0.1659,-0.1492,0,0,0,-0.1997,-0.1929,-0.1978,-0.1904,-0.1948,-0.1859,-0.1903,-0.1838,-0.1801,-0.184,-0.1693,-0.1691,-0.1686,-0.1662,-0.1497,-0.1109,-0.1054,0,0,-0.1905,-0.1918,-0.1874,-0.1915,-0.1842,-0.1868,-0.178,-0.1763,-0.1756,-0.1715,-0.1711,-0.1681,-0.1659,-0.1493,-0.0945,-0.0894,0,0,0,-0.184,-0.1826,-0.1801,-0.1784,-0.1744,-0.1746,-0.1716,-0.1698,-0.1656,-0.1725,-0.1626,-0.161,-0.1507,-0.1282,-0.1241,-0.124,-0.1677,-0.1678,-0.1678,-0.1717,-0.1733,-0.1685,-0.1702,-0.1664,-0.1645,-0.1617,-0.1592,-0.1583,-0.1549,-0.1562,-0.1373,-0.1134,-0.1099,-0.1105,-0.1527,-0.1527,-0.1527,-0.1527,-0.1639,-0.1538,-0.1668,-0.1608,-0.1619,-0.1536,-0.1527,-0.1517,-0.1408,-0.1474,-0.1373,-0.1233,-0.1053,-0.1075,-0.1525,-0.1526,-0.1526,-0.1526,-0.1526,-0.1562,-0.1459,-0.1543,-0.1453,-0.1396,-0.1363,-0.1183,-0.1239,-0.1338,-0.1303,-0.0935,-0.0931,-0.0976,-0.12,-0.1199,-0.1198,-0.1198,-0.1197,-0.1196,-0.1256,-0.1346,-0.1214,-0.116,-0.1051,-0.0877,-0.0861,-0.0777,-0.0743,-0.0837,-0.0832,-0.0858,-0.1271,-0.1313,-0.1183,-0.1186,-0.1187,-0.1188,-0.1189,-0.0768,-0.0832,-0.0689,-0.0597,-0.0394,-0.0217,-0.0231,-0.0059,-0.0036,0.0031,-0.0257,-0.0553,-0.0489,-0.0518,-0.0538,-0.0215,-0.0215,-0.0215,-0.0215,-0.0322,-0.0372,-0.0172,-0.0073,0.0105,0.0091,0.0387,0.0463,0.0369,0.0305,0.0132,0.0099,0.006,0.0145,0.0102,0.0089,0.0564,0.0564,0.0564,0.0161,0.0079,0.0288,0.0184,0.0282,0.0357,0.0554,0.0681,0.0667,0.0572,0.005,0.0018,-0.0077,-0.0139,-0.0051,-0.0111,-0.015,0,0]},{"header":{"parameterUnit":"m.s-1","parameterCategory":2,"la1":30.2992,"la2":30.254,"lo1":-89.0895,"lo2":-89.0443,"dy":0.0025,"dx":0.0025,"nx":19,"ny":19,"refTime":"2026-04-23T21:00:00:Z","depth":"0","parameterNumber":3,"parameterNumberName":"V-component_of_CURRENTS"},"data":[0,0,0,-0.0287,-0.0286,-0.02,-0.02,-0.0035,-0.0034,0,0,0,0,0,0,0,0,0,0,0,-0.0312,-0.0312,-0.0287,-0.0285,-0.02,-0.02,-0.0035,-0.0034,0,0,0,0,0,0,0,0,0,0,0,-0.0312,-0.0312,-0.0312,-0.0285,-0.0201,-0.02,-0.0036,-0.0109,0,0,0,0,0,0,0,0,0,0,-0.0197,-0.0241,-0.0312,-0.0312,-0.0285,-0.0201,-0.02,-0.0113,-0.0105,-0.0064,0,-0.006,0,-0.0051,-0.0023,-0.0023,0,0,0,-0.0267,-0.0248,-0.0224,-0.0312,-0.0284,-0.0201,-0.0233,-0.0109,-0.0099,-0.0052,-0.0058,-0.0052,-0.0049,-0.0022,-0.0021,0.0064,0.0064,0,0,-0.0271,-0.0292,-0.0231,-0.0218,-0.0273,-0.0236,-0.0231,-0.0103,-0.0098,-0.0057,-0.0049,-0.0046,-0.0021,-0.002,0.0064,0.0064,0,0,0,-0.0298,-0.0296,-0.0275,-0.0224,-0.0218,-0.0234,-0.0228,-0.0103,-0.0096,-0.0047,-0.0044,-0.002,-0.0018,0.0065,0.0064,0.0044,0,0,0,-0.03,-0.0312,-0.0277,-0.0288,-0.0221,-0.0169,-0.0231,-0.0105,-0.009,-0.0045,-0.002,-0.0017,0.0065,0.0065,0.0045,0.0209,0,0,0,-0.0314,-0.0314,-0.0307,-0.029,-0.0262,-0.0171,-0.0156,-0.0101,-0.0089,-0.0023,-0.0016,0.0065,0.0065,0.0046,0.0205,0.0343,0,0,0,-0.0333,-0.033,-0.0308,-0.0301,-0.0263,-0.0225,-0.0157,-0.0119,-0.0072,-0.0019,0.0065,0.0064,0.0047,0.0203,0.0339,0.0476,0.0508,0,0,-0.0339,-0.0331,-0.0326,-0.0305,-0.0263,-0.0234,-0.0192,-0.0105,-0.0063,0.0031,0.0033,0.0045,0.0205,0.0342,0.0442,0.0475,0,0,0,-0.0335,-0.0316,-0.0307,-0.0273,-0.0251,-0.0158,-0.0144,-0.0117,-0.0041,-0.004,0.0039,0.0145,0.023,0.0302,0.0327,0.0331,0.0062,0.0062,0.0062,-0.0337,-0.0311,-0.0223,-0.0177,-0.0156,-0.0126,-0.0071,-0.002,-0.0055,-0.004,0.0114,0.0213,0.0277,0.0301,0.0298,0.0009,0.0009,0.0009,0.0009,-0.0202,-0.0054,-0.0055,0.0054,0.0094,0.0139,0.0128,0.0079,0.0171,0.0102,0.018,0.0262,0.0329,0.0315,0.0007,0.0007,0.0008,0.0008,0.0008,-0.003,0.0077,0.0105,0.0258,0.0392,0.0384,0.0525,0.0442,0.0334,0.0356,0.0521,0.0522,0.0539,0.0399,0.04,0.0401,0.0403,0.0403,0.0404,0.0225,0.0263,0.0346,0.0487,0.0577,0.0725,0.0791,0.0826,0.0813,0.0666,0.0666,0.0591,0.0337,0.0354,0.0423,0.042,0.0417,0.0416,0.0414,0.0565,0.0454,0.0584,0.0641,0.0827,0.0942,0.1045,0.1189,0.1231,0.1245,0.0979,0.0805,0.0887,0.0865,0.0897,0.1105,0.1105,0.1105,0.1105,0.0741,0.0709,0.0788,0.0848,0.0979,0.1052,0.1208,0.134,0.1357,0.1308,0.1259,0.1105,0.1077,0.1159,0.1131,0.1164,0.1435,0.1435,0.1435,0.0935,0.0897,0.098,0.0946,0.1043,0.1112,0.1197,0.1351,0.1423,0.144,0.1244,0.123,0.098,0.0937,0.1034,0.0994,0.1036,0,0]}],[{"header":{"parameterUnit":"m.s-1","parameterCategory":2,"la1":30.2992,"la2":30.254,"lo1":-89.0895,"lo2":-89.0443,"dy":0.0025,"dx":0.0025,"nx":19,"ny":19,"refTime":"2026-04-23T21:00:00:Z","depth":"2","parameterNumber":2,"parameterNumberName":"U-component_of_CURRENTS"},"data":[0,0,0,-0.156,-0.156,-0.1573,-0.1573,-0.1544,-0.1544,0,0,0,0,0,0,0,0,0,0,0,-0.1541,-0.1541,-0.156,-0.1561,-0.1573,-0.1573,-0.1544,-0.1544,0,0,0,0,0,0,0,0,0,0,0,-0.1541,-0.1541,-0.1541,-0.1561,-0.1573,-0.1573,-0.1544,-0.1545,0,0,0,0,0,0,0,0,0,0,-0.1538,-0.1536,-0.1541,-0.1541,-0.1561,-0.1573,-0.1573,-0.1546,-0.1545,-0.1527,0,-0.1521,0,-0.1538,-0.1541,-0.1541,0,0,0,-0.1557,-0.1537,-0.1535,-0.1541,-0.1561,-0.1573,-0.1566,-0.1546,-0.1545,-0.1526,-0.152,-0.152,-0.1537,-0.1541,-0.1541,-0.1445,-0.1445,0,0,-0.1556,-0.155,-0.1536,-0.1534,-0.1552,-0.1566,-0.1567,-0.1546,-0.1542,-0.152,-0.152,-0.1537,-0.1541,-0.154,-0.1446,-0.1445,0,0,0,-0.1557,-0.1549,-0.1549,-0.1535,-0.1544,-0.1567,-0.1567,-0.1543,-0.1541,-0.152,-0.1537,-0.154,-0.154,-0.1447,-0.1446,-0.145,0,0,0,-0.1556,-0.155,-0.1548,-0.1545,-0.1545,-0.1553,-0.1565,-0.1542,-0.1541,-0.1537,-0.154,-0.154,-0.1448,-0.1446,-0.1452,-0.1473,0,0,0,-0.1543,-0.1549,-0.1546,-0.1545,-0.1553,-0.1554,-0.1551,-0.1542,-0.1551,-0.1541,-0.1539,-0.1448,-0.1447,-0.1454,-0.1475,-0.1461,0,0,0,-0.1542,-0.152,-0.1545,-0.1526,-0.1553,-0.1528,-0.1552,-0.1535,-0.1522,-0.154,-0.1448,-0.1446,-0.1454,-0.1475,-0.1462,-0.1415,-0.1408,0,0,-0.1511,-0.1516,-0.1505,-0.1528,-0.151,-0.1527,-0.15,-0.1498,-0.1487,-0.1453,-0.1451,-0.1452,-0.1475,-0.1461,-0.1313,-0.1308,0,0,0,-0.1494,-0.1486,-0.1481,-0.1484,-0.1476,-0.1481,-0.1478,-0.1463,-0.1435,-0.1474,-0.1414,-0.1428,-0.142,-0.1392,-0.1387,-0.1437,-0.1438,-0.1438,-0.1438,-0.143,-0.1448,-0.1428,-0.1444,-0.1441,-0.144,-0.1423,-0.1399,-0.1399,-0.1375,-0.1403,-0.1359,-0.1326,-0.1323,-0.1359,-0.1359,-0.1359,-0.1359,-0.1359,-0.1359,-0.1339,-0.139,-0.1377,-0.1403,-0.1391,-0.1388,-0.1385,-0.1352,-0.1358,-0.1349,-0.1362,-0.1319,-0.1359,-0.1359,-0.1359,-0.1359,-0.1359,-0.1359,-0.1291,-0.1285,-0.13,-0.1313,-0.1346,-0.1382,-0.1419,-0.141,-0.1365,-0.1353,-0.1323,-0.1323,-0.1391,-0.1354,-0.1354,-0.1354,-0.1354,-0.1354,-0.1354,-0.1194,-0.1216,-0.121,-0.1253,-0.1286,-0.136,-0.1442,-0.1438,-0.138,-0.1327,-0.1326,-0.1357,-0.1357,-0.1389,-0.1355,-0.1355,-0.1355,-0.1355,-0.1355,-0.1089,-0.1121,-0.1108,-0.1132,-0.1206,-0.1227,-0.1375,-0.1387,-0.1389,-0.1319,-0.1293,-0.1295,-0.1293,-0.1295,-0.1323,-0.1274,-0.1274,-0.1274,-0.1274,-0.1024,-0.1035,-0.1012,-0.1029,-0.1076,-0.1155,-0.1126,-0.1132,-0.1157,-0.1126,-0.1132,-0.1111,-0.1118,-0.1105,-0.1112,-0.1136,-0.1038,-0.1038,-0.1037,-0.0962,-0.0971,-0.0932,-0.0952,-0.0999,-0.1026,-0.0895,-0.076,-0.0827,-0.1026,-0.1073,-0.1262,-0.1247,-0.1251,-0.1247,-0.1251,-0.1297,0,0]},{"header":{"parameterUnit":"m.s-1","parameterCategory":2,"la1":30.2992,"la2":30.254,"lo1":-89.0895,"lo2":-89.0443,"dy":0.0025,"dx":0.0025,"nx":19,"ny":19,"refTime":"2026-04-23T21:00:00:Z","depth":"2","parameterNumber":3,"parameterNumberName":"V-component_of_CURRENTS"},"data":[0,0,0,-0.0383,-0.0382,-0.0305,-0.0305,-0.0145,-0.0143,0,0,0,0,0,0,0,0,0,0,0,-0.0402,-0.0402,-0.0383,-0.0382,-0.0305,-0.0305,-0.0145,-0.0143,0,0,0,0,0,0,0,0,0,0,0,-0.0403,-0.0402,-0.0402,-0.0382,-0.0305,-0.0305,-0.0145,-0.0214,0,0,0,0,0,0,0,0,0,0,-0.0295,-0.0339,-0.0402,-0.0402,-0.0382,-0.0306,-0.0305,-0.0218,-0.021,-0.0167,0,-0.0162,0,-0.0158,-0.0133,-0.0132,0,0,0,-0.0364,-0.0346,-0.0318,-0.0402,-0.0381,-0.0306,-0.0335,-0.0214,-0.0205,-0.0156,-0.016,-0.0154,-0.0155,-0.0132,-0.0131,-0.0033,-0.0033,0,0,-0.0369,-0.039,-0.0325,-0.0313,-0.0368,-0.0338,-0.0333,-0.0209,-0.0204,-0.0159,-0.0151,-0.0153,-0.0131,-0.0129,-0.0033,-0.0033,0,0,0,-0.0393,-0.0393,-0.0369,-0.0319,-0.0315,-0.0336,-0.033,-0.021,-0.02,-0.0149,-0.0151,-0.013,-0.0128,-0.0033,-0.0033,-0.0076,0,0,0,-0.0394,-0.0408,-0.0372,-0.0383,-0.0318,-0.0273,-0.0334,-0.0209,-0.0195,-0.0152,-0.013,-0.0126,-0.0033,-0.0033,-0.0075,-0.0112,0,0,0,-0.0405,-0.041,-0.0401,-0.0385,-0.036,-0.0276,-0.0259,-0.0206,-0.0196,-0.0132,-0.0126,-0.0033,-0.0033,-0.0074,-0.0109,-0.0093,0,0,0,-0.0427,-0.0417,-0.0402,-0.0389,-0.0361,-0.0315,-0.026,-0.022,-0.0172,-0.0129,-0.0033,-0.0033,-0.0073,-0.0107,-0.0092,-0.0058,-0.006,0,0,-0.0426,-0.0418,-0.0408,-0.0393,-0.0365,-0.0324,-0.0287,-0.0207,-0.0158,-0.0065,-0.0063,-0.0075,-0.0108,-0.0093,-0.0072,-0.0074,0,0,0,-0.0415,-0.0417,-0.0402,-0.0385,-0.0344,-0.0315,-0.0245,-0.0211,-0.014,-0.0134,-0.0068,-0.0088,-0.0077,-0.0053,-0.0055,-0.0034,-0.0034,-0.0034,-0.0034,-0.0452,-0.0428,-0.0441,-0.0411,-0.0375,-0.0304,-0.0266,-0.0207,-0.0151,-0.0138,-0.0117,-0.0131,-0.0107,-0.0108,-0.01,-0.0101,-0.0101,-0.0101,-0.0101,-0.0513,-0.0551,-0.0511,-0.0521,-0.0465,-0.043,-0.0308,-0.0256,-0.0173,-0.015,-0.0135,-0.0094,-0.0112,-0.0104,-0.0104,-0.0103,-0.0103,-0.0103,-0.0102,-0.0607,-0.0628,-0.0631,-0.0639,-0.0624,-0.0531,-0.0478,-0.0372,-0.0242,-0.021,-0.0151,-0.0149,-0.0154,-0.0193,-0.0193,-0.0193,-0.0193,-0.0193,-0.0193,-0.0723,-0.0725,-0.0749,-0.0755,-0.0756,-0.0729,-0.0579,-0.048,-0.0307,-0.0205,-0.0203,-0.0162,-0.0159,-0.0158,-0.0195,-0.0195,-0.0195,-0.0194,-0.0194,-0.0833,-0.0808,-0.0851,-0.0857,-0.0855,-0.083,-0.0712,-0.0489,-0.0357,-0.0258,-0.0176,-0.0176,-0.0154,-0.0151,-0.015,-0.0183,-0.0183,-0.0183,-0.0183,-0.0889,-0.0884,-0.0908,-0.0915,-0.0918,-0.0866,-0.0697,-0.0492,-0.0289,-0.0204,-0.0203,-0.0184,-0.0183,-0.0162,-0.0159,-0.0157,-0.0192,-0.0192,-0.0192,-0.0925,-0.0927,-0.0942,-0.094,-0.094,-0.0872,-0.071,-0.0423,-0.0172,-0.0196,-0.0244,-0.0176,-0.0144,-0.0144,-0.0106,-0.0104,-0.0098,0,0]}],[{"header":{"parameterUnit":"m.s-1","parameterCategory":2,"la1":30.2992,"la2":30.254,"lo1":-89.0895,"lo2":-89.0443,"dy":0.0025,"dx":0.0025,"nx":19,"ny":19,"refTime":"2026-04-23T21:00:00:Z","depth":"4","parameterNumber":2,"parameterNumberName":"U-component_of_CURRENTS"},"data":[0,0,0,-0.1015,-0.1017,-0.1107,-0.1107,-0.1152,-0.1152,0,0,0,0,0,0,0,0,0,0,0,-0.0982,-0.0983,-0.1015,-0.1017,-0.1107,-0.1107,-0.1152,-0.1152,0,0,0,0,0,0,0,0,0,0,0,-0.0982,-0.0983,-0.0984,-0.1017,-0.1107,-0.1108,-0.1152,-0.1101,0,0,0,0,0,0,0,0,0,0,-0.1021,-0.1006,-0.0982,-0.0984,-0.1018,-0.1107,-0.1108,-0.1099,-0.1104,-0.1092,0,-0.1113,0,-0.1135,-0.1154,-0.1154,0,0,0,-0.1013,-0.1002,-0.1024,-0.0984,-0.1019,-0.1107,-0.1065,-0.1102,-0.1108,-0.1098,-0.1114,-0.1116,-0.1136,-0.1154,-0.1154,-0.1155,-0.1154,0,0,-0.1008,-0.0998,-0.1021,-0.1028,-0.105,-0.1062,-0.1068,-0.1106,-0.1114,-0.1114,-0.1118,-0.1136,-0.1154,-0.1155,-0.1155,-0.1155,0,0,0,-0.0996,-0.0994,-0.1017,-0.1026,-0.1049,-0.1065,-0.1072,-0.1113,-0.112,-0.1118,-0.1137,-0.1155,-0.1155,-0.1155,-0.1155,-0.1164,0,0,0,-0.0993,-0.0988,-0.1015,-0.101,-0.1049,-0.1093,-0.1077,-0.1118,-0.1123,-0.1137,-0.1155,-0.1155,-0.1155,-0.1155,-0.1164,-0.1173,0,0,0,-0.0977,-0.0986,-0.0999,-0.1009,-0.105,-0.1093,-0.1103,-0.112,-0.1134,-0.1154,-0.1155,-0.1155,-0.1155,-0.1164,-0.1173,-0.1154,0,0,0,-0.0959,-0.0991,-0.0999,-0.1036,-0.105,-0.1091,-0.1103,-0.114,-0.1159,-0.1155,-0.1155,-0.1155,-0.1164,-0.1173,-0.1154,-0.1036,0,0,0,-0.0988,-0.0994,-0.1014,-0.1023,-0.1063,-0.1078,-0.1108,-0.1142,-0.1143,-0.1137,-0.1138,-0.1164,-0.1173,-0.1154,-0.101,0,0,0,0,-0.1015,-0.1026,-0.1039,-0.1067,-0.1094,-0.1111,-0.1142,-0.114,-0.1148,-0.1153,-0.1152,-0.1157,-0.1145,-0.1076,-0.1152,-0.1153,-0.1153,-0.1153,-0.1153,-0.1028,-0.1042,-0.106,-0.1079,-0.1108,-0.1134,-0.1138,-0.1135,-0.1148,-0.1144,-0.1156,-0.1136,-0.1063,-0.1142,-0.1142,-0.1142,-0.1142,-0.1142,-0.1142,-0.1015,-0.1004,-0.1044,-0.1064,-0.1095,-0.1121,-0.1139,-0.1145,-0.1135,-0.1146,-0.1133,-0.108,-0.1143,-0.1143,-0.1143,-0.1142,-0.1142,-0.1142,-0.1142,-0.0965,-0.0961,-0.0988,-0.1015,-0.106,-0.1109,-0.1114,-0.1142,-0.1143,-0.1137,-0.1055,-0.1135,-0.1144,-0.1135,-0.1135,-0.1135,-0.1135,-0.1135,-0.1135,-0.0882,-0.0911,-0.0916,-0.0963,-0.0992,-0.1039,-0.1103,-0.1101,-0.113,-0.105,-0.1146,-0.1134,-0.1134,-0.1142,-0.1134,-0.1134,-0.1134,-0.1134,-0.1134,-0.0797,-0.0833,-0.0825,-0.0847,-0.089,-0.0917,-0.1015,-0.1012,-0.0988,-0.0945,-0.0986,-0.0994,-0.0977,-0.0981,-0.0984,-0.0928,-0.0927,-0.0925,0,-0.0745,-0.0758,-0.0748,-0.0749,-0.0749,-0.0833,-0.0802,-0.084,-0.0864,-0.0829,-0.0968,-0.1013,-0.1018,-0.1,-0.1001,-0.1003,0,0,0,-0.0695,-0.0704,-0.0675,-0.0686,-0.0677,-0.0707,-0.0788,-0.0763,-0.0868,-0.0838,-0.0886,-0.0896,-0.1062,-0.1132,-0.1124,-0.1124,-0.1137,0,0]},{"header":{"parameterUnit":"m.s-1","parameterCategory":2,"la1":30.2992,"la2":30.254,"lo1":-89.0895,"lo2":-89.0443,"dy":0.0025,"dx":0.0025,"nx":19,"ny":19,"refTime":"2026-04-23T21:00:00:Z","depth":"4","parameterNumber":3,"parameterNumberName":"V-component_of_CURRENTS"},"data":[0,0,0,-0.024,-0.0239,-0.021,-0.021,-0.0087,-0.0086,0,0,0,0,0,0,0,0,0,0,0,-0.0244,-0.0245,-0.024,-0.0239,-0.021,-0.021,-0.0087,-0.0086,0,0,0,0,0,0,0,0,0,0,0,-0.0244,-0.0244,-0.0245,-0.0239,-0.021,-0.021,-0.0087,-0.0127,0,0,0,0,0,0,0,0,0,0,-0.0164,-0.0196,-0.0244,-0.0245,-0.0239,-0.021,-0.021,-0.0129,-0.0124,-0.0081,0,-0.0087,0,-0.0091,-0.0077,-0.0077,0,0,0,-0.0222,-0.0201,-0.0187,-0.0245,-0.0239,-0.021,-0.0219,-0.0127,-0.0121,-0.0074,-0.0085,-0.0081,-0.0089,-0.0076,-0.0076,0.0011,0.0011,0,0,-0.0224,-0.0238,-0.0192,-0.0184,-0.0242,-0.022,-0.0218,-0.0124,-0.0123,-0.0085,-0.0079,-0.0087,-0.0075,-0.0074,0.0011,0.0011,0,0,0,-0.024,-0.0239,-0.023,-0.0189,-0.0194,-0.0219,-0.0217,-0.0127,-0.0124,-0.0078,-0.0085,-0.0075,-0.0073,0.0011,0.0011,-0.0037,0,0,0,-0.024,-0.025,-0.0231,-0.0239,-0.0197,-0.0175,-0.0223,-0.013,-0.012,-0.0086,-0.0075,-0.0072,0.0011,0.0011,-0.0036,-0.008,0,0,0,-0.0244,-0.025,-0.025,-0.024,-0.0235,-0.0177,-0.0168,-0.0128,-0.0125,-0.0077,-0.0071,0.0011,0.0011,-0.0034,-0.0077,-0.0089,0,0,0,-0.0254,-0.026,-0.025,-0.0252,-0.0236,-0.0209,-0.0169,-0.0143,-0.0108,-0.0074,0.0011,0.0011,-0.0034,-0.0075,-0.0087,-0.0095,0,0,0,-0.0265,-0.0262,-0.026,-0.025,-0.0243,-0.0211,-0.019,-0.0132,-0.009,-0.001,-0.0008,-0.0036,-0.0077,-0.0089,-0.0095,0,0,0,0,-0.0265,-0.0275,-0.0265,-0.0263,-0.0232,-0.0218,-0.0163,-0.0136,-0.0082,-0.0073,-0.0023,-0.0047,-0.0053,-0.0051,0.0011,0.0011,0.0011,0.0011,0.0011,-0.0317,-0.0297,-0.0316,-0.0294,-0.0271,-0.0216,-0.019,-0.0142,-0.0089,-0.008,-0.0076,-0.0108,-0.0106,-0.005,-0.0051,-0.0051,-0.0051,-0.0051,-0.0051,-0.038,-0.0408,-0.0385,-0.0402,-0.0361,-0.0339,-0.0241,-0.0197,-0.014,-0.0106,-0.0109,-0.0089,-0.0056,-0.0055,-0.0054,-0.0054,-0.0053,-0.0053,-0.0053,-0.0456,-0.047,-0.0484,-0.0501,-0.0504,-0.0432,-0.0415,-0.0324,-0.0217,-0.0201,-0.0184,-0.0142,-0.015,-0.0198,-0.0198,-0.0199,-0.0199,-0.0199,-0.0199,-0.0536,-0.0547,-0.0575,-0.0594,-0.0603,-0.0597,-0.0516,-0.0467,-0.0353,-0.0256,-0.0224,-0.0157,-0.0152,-0.0157,-0.0203,-0.0202,-0.0202,-0.0201,-0.0201,-0.0607,-0.0598,-0.064,-0.0655,-0.0669,-0.066,-0.062,-0.0522,-0.0457,-0.0378,-0.0267,-0.0262,-0.0248,-0.0241,-0.0248,-0.0323,-0.0324,-0.0324,0,-0.0639,-0.064,-0.0674,-0.069,-0.0695,-0.0683,-0.0602,-0.0551,-0.0433,-0.0403,-0.0439,-0.0317,-0.0311,-0.0299,-0.0293,-0.0305,0,0,0,-0.0654,-0.0663,-0.0683,-0.07,-0.0702,-0.0616,-0.058,-0.0544,-0.0432,-0.042,-0.0331,-0.0329,-0.0331,-0.0214,-0.0182,-0.0176,-0.0183,0,0]}]]